sat.trackr.live / text

‹ back to catalog

STARLINK-11396 [DTC]

NORAD 62015 · 2024-213H

PAYLOAD ACTIVE UNKNOWN

§ Identity

Operator
Country
US
Launch date
2024-11-18
Launch site
AFWTR
Launch vehicle
Mass (kg)
RCS (m²)

Purposes: comms

External: N2YO · Heavens-Above · Gunter

§ Orbital elements

Epoch: 2026-05-25T01:31:18.804576Z

Period
91.74 min
Inclination
53.1579°
Eccentricity
0.0000383
Mean motion
15.69727612 rev/d
Perigee alt
359.4 km
Apogee alt
359.9 km
Semi-major
6,737.8 km
B*
1.1910e-3
RAAN
24.5371°
Arg perigee
124.9779°
Mean anomaly
235.1275°
Rev number
8,691

§ Raw data

STARLINK-11396 [DTC]1 62015U 24213H   26145.06341209  .00146375  00000+0  11910-2 0  99982 62015  53.1579  24.5371 0000383 124.9779 235.1275 15.69727612 86916

JSON: /api/v1/satellites/62015 · /tle

For live sub-satellite position, see the globe view (requires WebGL).

§ Visibility from observer

Set your observer location to see the next 7 days of passes ≥ 10°. The values pass through the URL so the page stays shareable.

No JS? Fill the form by hand. The geolocation button needs JavaScript.